Αρχική σελίδα
METAR-TAF:

METAR-TAF

Αεροδρόμια :

Medicine Lodge Airport

Medicine Lodge, Κάνσας, Ηνωμένες Πολιτείες Αμερικής

γεωγραφικό πλάτος: 37-17-02N, γεωγραφικό μήκος: 098-33-10W, υψόμετρο: 469 μ

Παρών καιρός

Η αναφορά έγινε 23 λεπτά πριν, στις 08:56 UTC
Άνεμος 8 kt από Ν
Θερμοκρασία 23°C
Υγρασία 78%
Πίεση 1013 hPa

METAR: KP28 190856Z AUTO 17008KT 23/19 A2990 RMK AO1 SLP104 T02280194 58002

Χρόνος: 04:19 (09:19 UTC)


TAF: λείπει

Μετεωρολογικές αναφορές και προγνώσεις για περισσότερα από 4000 αεροδρόμια (δελτία METAR και TAF).

Οι διαθέσιμοι σταθμοί απεικονίζονται στο χάρτη με κίτρινες και κόκκινες κουκκίδες.

Μετακινήστε το ποντίκι πάνω από τις κουκκίδες για να δείτε το όνομα του σταθμού.

Στη συνέχεια, κάντε κλικ για να δείτε τις μετεωρολογικές αναφορές και τις προγνώσεις καιρού.

Για να αλλάξετε το χάρτη: κάντε κλικ στα πράσινα κουμπιά με τον μαύρο σταυρό για να ζουμάρετε, στο πράσινο κουμπί με την παύλα για να αφαιρέσετε το ζουμ ή στα πράσινα βέλη για να αντιπαραβάλλετε χάρτες.


METAR-TAF: